OH7GGX-14 Weather Reports


time (UTC)temp
C
wind
direction
speed
KPH
gust
KPH
rain 1hr
cm
rain 24hr
cm
rain mn
cm
humidity
%
barometer
mb
20260506165130 8 240 1.6 12.9 0.00 0.00 0.00 41 1013.6
20260506164130 8 191 4.8 8.0 0.00 0.00 0.00 40 1013.5
20260506163130 9 196 4.8 9.7 0.00 0.00 0.00 40 1013.4
20260506162130 9 202 4.8 19.3 0.00 0.00 0.00 40 1013.3
20260506161130 9 272 4.8 12.9 0.00 0.00 0.00 39 1013.2
20260506160130 9 240 3.2 9.7 0.00 0.00 0.00 40 1013.2
20260506155130 8 258 0.0 4.8 0.00 0.00 0.00 41 1013.1
20260506154130 8 213 1.6 8.0 0.00 0.00 0.00 41 1013.0
20260506153130 8 215 1.6 6.4 0.00 0.00 0.00 40 1013.0
20260506152130 9 213 3.2 9.7 0.00 0.00 0.00 40 1012.9
20260506151130 9 216 6.4 9.7 0.00 0.00 0.00 38 1012.9
20260506150130 9 233 3.2 19.3 0.00 0.00 0.00 36 1012.8
20260506145130 10 354 4.8 14.5 0.00 0.00 0.00 37 1012.7
20260506144130 10 251 6.4 19.3 0.00 0.00 0.00 36 1012.7
20260506143130 10 265 9.7 12.9 0.00 0.00 0.00 37 1012.6
20260506142130 10 241 4.8 16.1 0.00 0.00 0.00 39 1012.5
20260506141130 10 21 6.4 6.4 0.00 0.00 0.00 39 1012.3
20260506140130 10 237 4.8 16.1 0.00 0.00 0.00 37 1012.2
20260506135130 10 345 0.0 9.7 0.00 0.00 0.00 40 1012.2
20260506134130 10 324 4.8 11.3 0.00 0.00 0.00 40 1012.2
20260506133130 10 15 1.6 17.7 0.00 0.00 0.00 40 1012.1
20260506132130 10 250 9.7 17.7 0.00 0.00 0.00 40 1011.9
20260506131130 10 226 8.0 16.1 0.00 0.00 0.00 41 1011.9
20260506130130 10 247 9.7 19.3 0.00 0.00 0.00 41 1012.0
20260506125130 10 270 8.0 16.1 0.00 0.00 0.00 40 1011.6
20260506124130 10 233 9.7 17.7 0.00 0.00 0.00 39 1011.6
20260506123130 10 243 12.9 19.3 0.00 0.00 0.00 38 1011.5
20260506122130 10 16 3.2 12.9 0.00 0.00 0.00 40 1011.4
20260506121130 10 229 6.4 19.3 0.00 0.00 0.00 38 1011.4
20260506120130 10 230 6.4 16.1 0.00 0.00 0.00 40 1011.4
20260506115130 10 258 9.7 19.3 0.00 0.00 0.00 39 1011.3
20260506114130 10 260 6.4 8.0 0.00 0.00 0.00 41 1011.1
20260506113130 10 240 8.0 22.5 0.00 0.00 0.00 42 1011.1
20260506112130 9 206 9.7 19.3 0.00 0.00 0.00 43 1010.9
20260506111130 9 232 4.8 14.5 0.00 0.00 0.00 43 1011.0
20260506110130 10 232 11.3 12.9 0.00 0.00 0.00 41 1011.0
20260506105130 10 316 3.2 14.5 0.00 0.00 0.00 40 1010.8
20260506104131 10 15 0.0 20.9 0.00 0.00 0.00 42 1010.6
20260506103130 10 209 8.0 14.5 0.00 0.00 0.00 44 1010.5
20260506102130 9 206 4.8 17.7 0.00 0.00 0.00 45 1010.5
20260506101130 9 232 3.2 14.5 0.00 0.00 0.00 45 1010.5
20260506100130 10 258 11.3 16.1 0.00 0.00 0.00 41 1010.4
20260506095131 10 305 6.4 27.4 0.00 0.00 0.00 44 1010.2
20260506094130 10 236 12.9 22.5 0.00 0.00 0.00 45 1010.1
20260506093131 9 219 9.7 14.5 0.00 0.20 0.00 47 1010.0
20260506092131 8 226 12.9 14.5 0.00 0.20 0.00 47 1009.9
20260506091131 8 246 8.0 22.5 0.00 0.20 0.00 48 1009.9
20260506090131 8 240 12.9 17.7 0.00 0.20 0.00 53 1009.8
20260506085131 8 246 6.4 8.0 0.00 0.20 0.00 52 1009.9
20260506084131 8 274 12.9 12.9 0.00 0.20 0.00 51 1009.7
20260506083131 8 227 6.4 19.3 0.00 0.20 0.00 51 1009.6
20260506082131 8 217 4.8 14.5 0.00 0.20 0.00 51 1009.5
20260506081131 8 233 9.7 12.9 0.00 0.20 0.00 50 1009.5
20260506080131 8 286 3.2 12.9 0.00 0.20 0.00 53 1009.4
20260506073131 7 199 3.2 14.5 0.00 0.20 0.00 56 1009.1
20260506072131 8 234 4.8 14.5 0.00 0.20 0.00 56 1009.0
20260506071131 8 258 3.2 16.1 0.00 0.20 0.00 57 1008.9
20260506070131 8 213 6.4 17.7 0.00 0.20 0.00 57 1008.7
20260506062131 7 282 3.2 9.7 0.00 0.20 0.00 71 1008.4
20260506061131 6 12 4.8 14.5 0.00 0.20 0.00 76 1008.4
20260506060131 6 29 0.0 11.3 0.00 0.20 0.00 80 1008.2
20260506051131 3 19 4.8 8.0 0.00 0.20 0.00 99 1008.1
20260506050131 3 324 0.0 8.0 0.00 0.20 0.00 99 1008.2
20260506045131 2 180 6.4 8.0 0.00 0.20 0.00 99 1008.0
20260506044131 2 267 4.8 6.4 0.00 0.20 0.00 99 1007.9
20260506043131 2 234 1.6 4.8 0.00 0.20 0.00 99 1007.8
20260506042131 1 198 3.2 6.4 0.00 0.20 0.00 99 1007.8
20260506041131 1 202 3.2 6.4 0.00 0.20 0.00 99 1007.7
20260506040131 0 191 3.2 8.0 0.00 0.20 0.00 99 1007.7
20260506035131 0 223 1.6 4.8 0.00 0.20 0.00 99 1007.8
20260506034131 0 209 1.6 4.8 0.00 0.20 0.00 99 1007.6
20260506033131 0 217 1.6 3.2 0.00 0.20 0.00 99 1007.5
20260506032131 -1 223 1.6 3.2 0.00 0.20 0.00 99 1007.6
20260506031131 -1 219 0.0 3.2 0.00 0.20 0.00 99 1007.4
20260506030131 -1 205 1.6 3.2 0.00 0.20 0.00 99 1007.5
20260506025131 -1 178 1.6 3.2 0.00 0.20 0.00 99 1007.3
20260506024133 -2 185 1.6 3.2 0.00 0.20 0.00 99 1007.2
20260506023131 -2 257 1.6 4.8 0.00 0.20 0.00 99 1007.1
20260506022131 -2 205 1.6 3.2 0.00 0.20 0.00 99 1007.0
20260506021131 -2 178 1.6 3.2 0.00 0.20 0.00 99 1006.9
20260506020131 -2 216 1.6 3.2 0.00 0.20 0.00 99 1006.9
20260506015131 -2 267 0.0 3.2 0.00 0.20 0.00 99 1006.8
20260506014131 -2 9 0.0 1.6 0.00 0.20 0.00 99 1006.9
20260506013131 -2 268 0.0 0.0 0.00 0.20 0.00 99 1006.8
20260506012131 -2 21 0.0 1.6 0.00 0.20 0.00 99 1006.6
20260506011131 -1 21 0.0 0.0 0.00 0.20 0.00 99 1006.6
20260506010131 -1 178 4.8 4.8 0.00 0.20 0.00 99 1006.5
20260506005132 -1 202 1.6 4.8 0.00 0.20 0.00 99 1006.3
20260506004132 -1 187 1.6 3.2 0.00 0.20 0.00 99 1006.2
20260506003132 -1 178 0.0 1.6 0.00 0.20 0.00 99 1006.1
20260506002132 -1 178 0.0 3.2 0.00 0.20 0.00 99 1006.0
20260506001132 -1 178 1.6 3.2 0.00 0.20 0.00 99 1006.0
20260506000132 -1 178 0.0 3.2 0.00 0.20 0.00 99 1005.8
20260505235132 -1 178 0.0 1.6 0.00 0.20 0.00 99 1005.8
20260505234132 -1 178 0.0 1.6 0.00 0.20 0.00 99 1005.8
20260505233132 -1 178 0.0 1.6 0.00 0.20 0.00 99 1005.9
20260505232132 -1 178 0.0 1.6 0.00 0.20 0.00 99 1005.9
20260505231132 -1 178 0.0 1.6 0.00 0.20 0.00 99 1005.7
20260505230132 -1 178 1.6 3.2 0.00 0.20 0.00 99 1005.7
20260505225132 -1 178 1.6 3.2 0.00 0.20 0.00 99 1005.7
20260505224132 -1 178 1.6 3.2 0.00 0.20 0.00 99 1005.6
20260505223132 -1 21 1.6 3.2 0.00 0.20 0.00 99 1005.7
20260505222132 0 21 1.6 3.2 0.00 0.20 0.00 99 1005.5
20260505221132 0 178 1.6 1.6 0.00 0.20 0.00 99 1005.5
20260505220132 0 18 0.0 1.6 0.00 0.20 0.00 99 1005.5
20260505215132 0 21 0.0 3.2 0.00 0.20 0.20 99 1005.5
20260505214132 0 21 1.6 1.6 0.00 0.20 0.20 99 1005.5
20260505213132 0 21 1.6 1.6 0.00 0.20 0.20 99 1005.2
20260505212132 0 220 0.0 3.2 0.00 0.20 0.20 99 1005.2
20260505211132 0 181 1.6 4.8 0.00 0.20 0.20 99 1005.2
20260505210132 0 33 1.6 3.2 0.00 0.20 0.20 99 1005.1
20260505205132 0 19 1.6 4.8 0.00 0.20 0.20 99 1005.1
20260505204132 1 21 1.6 4.8 0.00 0.20 0.20 99 1005.1
20260505203132 1 178 1.6 3.2 0.00 0.20 0.20 99 1005.0
20260505202132 1 219 1.6 3.2 0.00 0.20 0.20 99 1005.0
20260505201132 1 223 0.0 4.8 0.00 0.20 0.20 99 1004.9
20260505200132 1 233 0.0 3.2 0.00 0.20 0.20 99 1004.9
20260505195132 1 219 0.0 6.4 0.00 0.20 0.20 99 1004.9
20260505194132 1 355 1.6 6.4 0.00 0.20 0.20 99 1004.8
20260505193132 1 312 4.8 6.4 0.00 0.20 0.20 99 1004.9
20260505192132 1 21 1.6 4.8 0.00 0.20 0.20 99 1004.9
20260505191132 2 178 0.0 1.6 0.00 0.20 0.20 99 1004.8
20260505190132 2 182 0.0 1.6 0.00 0.20 0.20 99 1004.9
20260505185132 2 247 0.0 8.0 0.00 0.20 0.20 98 1004.8
20260505184132 2 223 0.0 3.2 0.00 0.20 0.20 97 1004.7
20260505183132 2 178 0.0 1.6 0.00 0.23 0.20 95 1004.6
20260505182132 3 178 0.0 1.6 0.00 0.23 0.20 94 1004.5
20260505181132 3 178 0.0 1.6 0.00 0.23 0.20 92 1004.3
20260505180132 3 223 0.0 3.2 0.00 0.23 0.20 92 1004.4
20260505175132 4 175 1.6 3.2 0.00 0.23 0.20 89 1004.3
20260505174132 4 198 0.0 0.0 0.00 0.23 0.20 87 1004.2
20260505173132 5 223 0.0 0.0 0.00 0.23 0.20 84 1004.2
20260505172132 5 21 0.0 0.0 0.00 0.23 0.20 82 1004.1
20260505171132 6 178 0.0 1.6 0.00 0.23 0.20 79 1004.1
20260505170132 6 178 0.0 3.2 0.00 0.23 0.20 77 1004.1